Wind_Speed
12 12 12 12 13 13 13 14 14 14 14 14 15 15 15 15 14 14 14 14 14 14 14 14 14 14 14 14 14 14 14 14 14 13 13 13 13 13 12 12 13 12 11 11 12 12 12 12 13 15 17 18 18 18 18 17 15 13 15 17 19 22 21 18 17 15 12 13 6 6 4 9 4 4 5 5 9 15 10 9 10 11 13 13 12 10 12 15
12 12 12 13 13 13 13 13 14 14 14 14 15 15 15 15 15 14 14 14 14 14 14 14 14 14 14 14 14 14 14 14 13 13 13 13 11 12 13 12 12 12 10 11 11 11 10 10 11 15 17 18 17 17 17 16 16 17 19 20 22 23 21 18 18 17 15 20 10 5 3 7 3 1 6 5 7 13 12 9 8 8 9 10 13 12 12 15
12 12 13 13 13 13 13 14 14 14 14 14 14 14 15 15 15 15 14 14 14 14 14 14 14 15 14 14 14 13 13 13 13 13 12 12 11 11 12 12 12 11 10 11 11 11 10 10 11 14 16 17 17 16 15 14 15 17 20 24 25 23 21 19 17 14 11 16 9 3 5 6 2 4 4 2 7 12 12 9 8 9 11 10 12 13 13 16
13 13 13 14 14 14 14 14 14 14 14 14 14 14 15 15 15 15 14 14 14 14 14 14 14 14 14 14 14 13 13 13 12 12 10 9 9 9 10 11 11 11 10 10 11 12 12 13 14 14 16 17 15 14 14 14 14 16 20 25 24 21 23 21 17 14 16 16 7 3 5 6 3 3 4 3 5 10 11 9 8 7 9 11 12 13 15 19
13 13 14 14 14 14 14 14 14 14 14 14 14 14 14 15 15 15 15 14 14 14 14 14 14 14 14 14 14 13 12 11 11 13 11 7 7 8 8 9 10 10 10 11 11 12 13 16 16 12 13 14 13 13 14 14 15 17 20 22 20 21 23 22 21 18 19 14 4 1 9 6 5 2 5 4 5 12 15 14 13 11 11 14 14 13 16 20
13 14 14 14 14 14 14 14 14 15 15 15 15 14 14 14 15 15 15 14 14 14 14 14 14 14 14 14 14 13 11 9 10 14 14 9 8 9 8 8 8 9 11 11 11 12 14 16 16 12 11 12 13 15 14 13 15 19 21 20 20 21 22 23 21 18 18 15 9 5 12 9 7 7 6 7 9 15 20 18 15 17 15 14 15 15 17 20
14 14 14 14 14 14 14 14 14 14 15 15 15 15 14 14 14 15 15 15 14 14 15 14 14 14 14 14 14 13 12 9 9 15 17 13 11 10 9 8 8 8 10 10 10 12 13 16 16 15 14 13 13 15 15 14 16 20 22 21 22 22 24 24 19 19 21 18 15 13 14 14 8 9 7 8 12 13 17 16 14 15 13 13 16 18 19 20
14 14 14 14 14 15 15 14 14 14 15 15 15 15 14 14 14 14 15 15 14 14 15 14 14 14 14 15 14 13 13 10 10 14 16 16 14 12 11 10 10 9 8 9 10 11 12 16 15 16 17 16 13 13 13 15 19 22 24 22 23 23 23 23 19 18 18 17 17 14 14 19 11 9 10 9 12 13 16 18 14 11 9 12 19 20 19 20
15 15 15 15 15 15 15 15 15 15 15 15 15 15 14 14 14 14 15 15 15 14 15 15 14 14 14 15 15 14 14 12 12 14 15 16 15 13 12 10 10 10 9 9 11 12 14 16 15 15 15 15 13 13 11 15 19 20 23 22 22 24 23 23 22 19 16 15 14 7 9 16 15 12 12 12 14 15 16 15 12 11 10 12 19 19 18 20
15 15 15 15 15 15 15 15 15 15 15 15 15 15 14 14 14 14 14 15 15 15 15 15 15 15 14 15 15 15 15 14 14 16 17 16 15 13 12 11 10 9 9 10 12 13 15 15 13 12 13 14 16 17 15 17 19 18 20 22 23 24 23 22 22 21 17 14 13 10 10 11 13 15 13 14 14 15 13 12 11 12 10 12 17 19 18 20
16 16 15 15 15 16 16 16 16 15 15 15 15 15 14 14 14 13 14 14 15 15 15 15 15 15 15 15 15 13 11 13 16 18 18 15 14 14 12 12 10 9 10 10 11 13 14 13 12 10 13 15 17 18 19 20 19 20 21 24 25 23 23 21 22 24 19 17 19 18 18 15 14 16 14 14 14 19 18 14 12 10 8 10 13 16 18 21
16 16 16 16 16 16 16 16 16 16 16 15 15 15 15 14 13 13 13 14 14 15 15 15 16 16 16 16 13 10 10 15 17 17 17 14 12 11 12 12 10 10 10 10 12 12 12 13 14 12 14 13 14 14 15 17 18 21 22 23 23 23 24 22 21 23 22 22 21 18 19 20 19 17 16 16 15 20 22 17 12 9 8 10 12 13 16 20
17 17 16 16 16 16 16 16 16 16 16 16 15 15 15 14 13 13 13 14 14 15 15 15 16 16 17 14 10 12 14 17 18 15 17 17 12 9 12 12 10 10 9 11 14 11 6 9 12 13 14 15 19 17 15 13 14 18 20 21 23 25 26 23 19 20 22 23 19 15 20 23 20 19 18 17 17 19 23 19 14 13 16 15 13 12 12 16
17 17 17 16 16 16 16 16 16 16 16 16 16 16 16 15 14 13 13 14 15 15 15 15 16 16 18 13 10 15 16 15 17 17 19 20 15 11 11 11 11 12 11 14 15 13 8 10 15 18 19 21 22 22 20 16 13 14 17 21 22 26 29 23 18 19 22 23 18 16 23 25 20 19 20 19 20 21 23 19 15 18 20 18 15 14 13 14
17 17 17 17 16 16 16 16 16 17 17 16 16 16 15 15 14 14 14 15 15 16 15 16 16 17 18 14 11 14 13 12 14 14 16 17 15 12 9 8 9 11 12 15 16 16 16 17 20 21 22 23 23 22 19 18 17 14 17 22 21 25 29 25 21 21 22 23 22 22 25 25 21 19 18 18 21 24 26 22 19 21 21 19 17 17 17 15
17 17 17 17 17 16 16 16 16 16 17 16 16 16 15 15 15 14 15 15 16 16 16 17 16 16 16 14 11 11 11 11 10 11 13 15 14 9 6 7 7 8 11 14 17 18 18 17 17 20 21 21 24 21 16 17 19 16 16 20 21 22 25 25 24 23 23 24 25 27 27 26 24 22 19 18 19 23 26 25 21 20 22 21 19 20 18 16
18 18 18 18 18 18 17 16 16 16 16 16 16 16 16 15 14 15 15 15 16 17 17 17 17 17 15 14 10 7 7 9 9 9 11 12 10 7 7 9 9 7 9 12 17 19 17 17 17 19 21 21 22 19 16 19 21 18 17 20 22 22 22 23 24 23 22 24 27 29 28 27 25 21 20 21 21 21 22 24 23 20 23 23 22 21 20 18
19 19 19 20 20 20 19 18 18 16 16 16 16 16 16 15 15 15 15 15 16 17 18 17 18 15 9 6 3 1 5 8 9 9 8 8 7 9 12 11 12 10 9 11 14 16 17 17 16 18 20 21 23 23 22 25 23 20 19 21 23 24 24 25 24 24 23 24 29 32 30 29 26 21 20 21 23 24 24 26 27 25 25 26 27 27 24 20
20 20 20 20 20 20 20 19 19 18 17 16 16 16 15 15 15 15 15 16 17 18 16 15 17 15 7 3 1 3 6 8 9 10 10 9 6 10 15 13 14 13 10 13 13 13 15 16 16 19 22 22 24 28 29 27 22 19 21 23 24 25 27 26 22 21 24 26 29 35 33 30 28 24 22 22 23 25 28 31 30 29 29 29 32 28 22 18
20 20 20 20 20 20 19 19 18 18 17 16 16 16 16 15 14 15 18 19 18 16 15 16 19 19 13 10 5 2 1 10 13 11 11 13 8 8 14 14 16 17 14 15 14 11 13 18 21 25 25 23 22 25 27 24 21 21 23 26 27 25 26 26 22 18 21 26 30 35 34 31 30 25 22 22 24 23 25 32 32 31 30 27 29 24 17 17
19 19 19 19 19 19 18 18 17 17 16 15 15 15 15 14 14 17 22 23 18 16 17 17 20 22 15 12 12 7 8 13 19 15 13 14 11 10 14 16 18 20 17 16 14 11 13 22 26 24 22 21 20 20 21 21 22 25 26 27 28 28 28 25 23 22 21 25 30 34 32 27 27 25 23 22 23 22 23 32 35 30 25 22 23 21 17 17
17 17 17 17 17 17 17 17 16 16 15 14 13 13 13 14 16 17 23 25 18 15 18 17 19 23 17 12 13 13 16 16 18 19 16 14 17 15 15 18 20 20 17 15 16 17 20 25 25 21 18 17 17 19 21 21 22 24 25 26 27 27 27 22 19 23 24 25 29 32 31 23 22 25 25 21 21 19 16 27 31 24 22 19 19 20 19 20
15 15 15 15 15 15 15 15 15 14 13 13 12 12 12 13 14 16 21 26 22 17 18 18 17 20 18 14 13 16 22 20 16 20 19 16 17 15 15 19 18 18 18 17 18 21 26 24 19 17 17 17 18 19 20 22 24 23 23 24 27 25 24 22 17 19 22 25 25 30 31 22 18 22 25 21 20 18 16 23 22 20 22 21 21 21 22 25
14 14 14 14 14 14 13 12 13 12 11 10 10 10 12 12 13 17 20 25 26 21 15 15 17 18 16 12 12 19 24 21 18 19 19 18 15 12 15 18 16 17 19 20 19 20 26 24 15 11 13 16 21 21 20 24 27 27 24 22 25 25 24 26 20 17 13 15 19 28 27 18 16 18 22 23 21 19 19 23 25 25 25 25 23 22 25 27
13 13 14 14 14 13 13 11 10 10 8 7 9 9 9 11 13 16 17 20 26 22 14 13 17 15 11 9 11 16 19 19 20 19 19 22 17 13 15 17 18 18 18 19 20 22 22 21 18 16 14 13 18 23 24 24 24 25 24 22 24 28 27 27 22 20 14 6 13 20 16 10 13 18 19 22 23 22 19 20 26 28 27 28 27 24 25 25
13 13 14 14 14 13 13 11 9 9 10 10 11 9 9 10 10 10 12 16 22 18 11 13 14 10 9 12 11 10 14 20 21 18 20 24 22 17 15 17 19 20 19 17 20 24 21 18 19 21 21 17 16 21 22 22 22 20 20 18 20 27 30 28 24 21 17 7 5 11 10 5 10 19 19 18 21 23 22 21 24 27 30 30 26 24 24 24
13 12 12 13 13 11 11 12 10 10 12 12 11 10 8 7 5 5 8 10 12 10 5 10 10 7 8 11 11 13 16 16 17 16 20 25 24 20 18 19 19 19 18 17 20 24 23 21 20 21 23 21 21 25 24 24 24 22 20 18 17 20 24 26 24 20 20 15 5 11 10 6 9 18 21 20 22 23 25 28 26 26 31 29 25 25 24 23
10 9 9 11 11 9 9 11 10 10 12 12 10 8 6 4 2 3 4 3 3 3 4 11 10 7 6 7 14 20 15 7 10 13 18 25 25 21 21 22 22 19 15 17 21 21 19 20 20 20 22 21 23 27 24 19 18 20 21 20 20 19 20 22 21 19 20 18 10 15 11 5 7 17 19 21 26 26 22 25 25 26 28 26 26 27 24 22
9 8 8 10 11 9 8 10 9 9 12 12 9 5 4 4 4 3 2 1 3 3 4 8 10 9 6 9 15 21 17 10 10 11 13 23 24 22 22 20 22 23 20 18 22 21 18 17 17 18 21 20 16 17 19 16 16 19 18 18 20 20 23 24 21 18 13 9 9 12 12 6 6 16 18 16 22 28 26 24 25 28 28 26 25 25 23 22
9 8 8 9 11 10 10 11 9 8 11 11 7 5 6 7 6 3 2 3 6 6 6 7 9 10 9 11 15 20 20 15 12 9 13 20 22 23 22 19 20 24 23 22 22 22 19 16 16 18 19 19 15 13 17 18 18 19 16 16 18 19 23 23 20 17 8 4 8 10 10 7 4 14 16 8 9 18 24 25 29 33 31 28 25 21 20 20
10 10 10 10 12 12 11 12 10 7 9 9 7 7 8 8 6 3 2 4 10 8 7 9 9 11 12 13 15 19 19 15 13 13 17 21 21 23 23 20 21 22 23 24 23 22 21 18 17 17 16 16 17 17 17 18 18 18 18 19 17 16 18 18 19 16 6 2 8 13 14 9 8 14 10 2 4 10 14 18 26 31 29 26 23 19 17 16
11 12 12 11 12 12 12 13 10 7 7 7 8 9 9 7 6 10 9 5 7 3 2 4 6 9 13 12 14 18 17 15 16 16 19 23 23 23 23 23 22 19 20 24 23 20 22 23 19 17 16 15 16 17 18 19 18 19 22 22 14 7 7 9 10 8 4 4 8 12 14 12 15 18 11 7 8 7 9 12 17 23 25 24 22 19 16 14
13 13 14 13 12 11 10 12 11 8 7 7 8 10 11 5 5 16 17 10 7 3 6 9 8 4 9 12 15 16 15 15 16 16 18 21 22 22 22 22 21 19 17 18 20 20 17 22 24 22 21 20 18 18 20 19 19 25 29 23 11 2 1 2 3 2 2 8 15 17 13 10 12 11 7 8 6 4 5 7 10 17 21 21 19 15 13 13
14 14 14 12 10 10 9 10 10 8 7 8 10 12 12 7 8 13 16 16 14 11 13 14 15 12 11 14 16 15 15 16 15 16 18 20 21 22 22 21 20 22 20 17 18 19 12 14 22 23 20 21 20 22 26 21 15 22 28 20 12 8 5 2 1 3 2 5 13 17 11 6 9 11 7 3 3 3 6 10 8 13 15 16 14 12 11 11
13 13 12 11 9 9 9 8 8 8 7 8 11 15 16 15 14 11 11 13 14 15 17 17 19 19 16 14 14 14 15 16 16 18 19 21 24 24 23 23 21 21 23 20 17 18 15 13 18 20 18 19 19 21 28 25 15 13 22 21 18 16 12 6 3 2 1 2 2 6 3 8 14 17 13 9 6 5 10 14 12 11 12 11 11 10 9 8
11 10 10 11 8 5 5 6 6 7 7 8 12 19 21 19 15 11 10 11 14 16 20 21 19 18 17 15 14 15 16 16 17 19 18 21 25 25 22 22 22 21 23 22 18 15 16 16 15 16 19 23 21 18 24 25 15 9 16 23 24 19 14 9 4 3 2 2 1 2 5 10 14 15 12 8 6 7 9 13 13 11 11 12 11 11 9 7
9 8 8 9 4 0 2 3 4 5 5 8 14 20 21 20 17 14 13 14 18 18 21 22 19 15 14 16 17 14 15 15 16 19 19 18 20 23 23 20 20 22 22 23 22 17 15 18 18 14 14 19 22 17 19 22 18 13 13 16 19 18 16 13 6 1 1 1 1 6 9 10 7 7 8 9 12 12 11 14 14 11 13 15 12 10 7 5
8 6 6 6 3 2 5 7 8 8 6 9 15 18 18 18 16 16 17 19 21 21 20 22 20 17 14 17 20 19 16 15 19 20 21 19 16 19 23 19 13 15 19 20 24 24 17 17 19 15 11 13 18 19 19 20 20 19 15 11 11 11 10 11 8 2 2 2 2 5 9 9 7 2 6 10 15 17 18 19 17 15 15 14 10 8 6 5
7 4 5 6 7 7 9 12 13 12 9 10 14 15 14 13 12 10 12 16 20 20 20 19 17 18 15 14 18 21 21 13 14 17 19 18 14 16 23 24 15 9 11 12 17 25 24 16 15 17 15 13 13 19 23 20 19 21 19 14 13 10 5 7 9 6 3 2 1 0 2 5 9 8 6 10 10 13 18 20 18 17 14 11 9 7 7 7
5 4 3 4 7 8 10 12 12 10 9 10 12 12 11 13 12 11 13 15 17 17 20 19 17 20 18 14 15 19 21 17 5 9 12 13 13 13 18 24 23 15 11 9 9 15 21 20 16 17 16 15 14 14 20 19 17 21 23 18 14 10 7 8 9 11 6 2 4 1 2 1 6 8 10 14 12 11 13 14 13 13 13 11 9 9 9 8
4 4 3 6 10 11 12 11 9 8 8 8 10 12 13 14 14 15 16 15 17 18 18 18 17 19 19 16 18 18 17 20 11 3 5 10 14 16 15 20 27 23 16 14 11 7 10 17 21 19 16 17 15 9 12 15 12 16 20 18 15 12 9 6 6 13 11 3 8 6 2 3 4 6 10 12 11 9 8 9 10 11 11 10 9 8 9 9
2 3 5 9 11 10 11 9 6 7 11 11 12 13 14 15 16 18 15 11 13 16 15 14 16 16 15 14 17 18 18 20 16 8 7 8 9 13 16 19 27 26 18 17 14 7 5 8 18 22 19 19 14 8 10 12 6 11 15 13 14 14 12 8 4 7 5 3 11 11 5 4 5 6 10 11 11 11 9 8 10 11 11 12 12 10 10 10
2 3 4 9 10 10 10 9 6 6 11 12 13 13 13 15 16 18 16 12 12 14 14 11 11 12 13 14 14 14 16 19 16 11 9 8 7 8 13 15 19 25 21 19 15 10 5 2 7 16 18 21 18 11 10 10 6 8 7 9 14 14 13 13 10 8 6 4 10 8 3 6 8 6 10 12 13 14 13 14 16 15 14 14 14 13 13 13
4 3 5 9 12 11 10 8 7 9 10 11 11 12 12 13 14 14 16 15 12 13 14 12 10 10 12 13 12 11 15 18 16 8 3 2 4 7 9 11 11 19 20 16 13 12 8 2 4 3 7 12 14 10 8 9 10 9 5 11 10 6 3 7 8 10 9 6 9 7 3 8 13 10 11 13 15 15 14 17 18 16 14 13 12 12 12 12
7 6 3 6 9 9 8 7 8 9 11 11 10 9 9 10 12 12 13 15 13 12 13 14 14 13 12 12 11 13 13 12 13 10 4 4 5 5 8 12 8 11 16 14 13 15 10 2 7 3 2 3 3 1 4 7 11 9 8 18 15 8 4 2 5 6 6 5 8 12 12 13 15 12 11 11 13 16 16 16 17 15 15 14 13 12 12 11
5 6 3 1 5 7 8 8 7 8 11 12 8 6 7 9 9 8 9 12 14 11 9 11 13 13 13 13 13 16 14 7 11 11 4 5 8 5 6 8 4 5 8 12 17 18 13 4 4 4 1 4 4 7 4 3 2 4 11 18 15 11 6 2 4 1 4 7 7 14 21 22 18 13 11 12 14 16 16 15 15 15 14 15 15 15 14 13
4 4 1 5 5 7 9 10 8 8 11 9 6 6 7 8 7 3 4 7 8 10 7 5 8 8 9 12 12 16 14 8 12 13 7 1 5 3 3 4 5 7 7 8 12 13 14 12 7 3 2 2 5 7 6 4 6 11 16 17 13 12 8 1 3 2 4 3 7 15 24 25 20 16 16 18 18 17 15 14 14 13 13 13 15 17 16 16
4 6 5 4 3 9 14 13 10 10 11 8 5 6 8 8 7 7 5 3 2 6 6 4 5 6 5 9 10 13 14 11 10 10 7 1 3 3 1 3 6 8 8 6 7 9 8 10 13 11 5 1 4 9 11 8 7 11 14 15 13 13 11 6 3 4 7 5 10 21 25 21 20 18 18 20 21 18 17 15 13 13 14 14 17 19 19 19
6 5 2 4 4 9 14 13 13 12 10 8 7 6 6 5 4 9 10 5 2 5 8 9 5 5 3 5 6 7 9 10 8 6 5 3 3 3 3 4 8 9 7 5 7 8 8 7 10 12 11 9 7 8 11 10 7 1 4 7 11 13 13 11 8 2 7 8 15 21 21 17 18 19 20 22 20 17 16 16 15 15 16 16 17 20 22 21
8 8 4 5 6 8 9 8 12 13 9 10 11 9 10 8 3 2 7 6 1 2 8 12 11 4 2 1 2 3 3 4 6 4 2 4 3 3 3 4 3 4 3 6 10 10 9 9 10 10 11 13 13 12 10 8 8 9 9 4 3 8 9 7 6 8 9 14 18 18 20 20 19 19 21 21 17 14 14 16 16 16 16 17 17 19 23 24
7 8 6 5 6 10 7 3 6 9 9 12 14 14 15 15 10 5 1 1 3 2 2 5 9 6 1 1 2 4 5 5 7 8 4 2 3 5 2 3 4 4 3 6 9 9 7 6 7 7 6 6 8 10 10 8 9 8 6 5 3 2 4 3 4 7 11 21 26 24 25 27 23 20 20 18 15 15 16 18 17 16 16 16 15 16 21 25
7 8 7 6 8 10 6 5 7 7 9 12 14 15 17 17 17 11 2 6 8 7 3 3 4 3 3 3 4 6 7 9 10 10 8 7 5 6 6 2 3 5 5 4 6 8 7 5 4 1 3 2 1 3 7 10 8 3 1 2 3 3 4 3 3 3 7 20 29 29 30 30 27 24 23 21 19 19 19 20 19 17 17 16 14 13 17 23
Wind_Direction
301 300 299 299 298 297 297 297 297 297 297 298 298 299 298 299 299 299 300 301 301 300 299 298 298 297 296 294 293 292 290 290 290 292 289 281 278 278 273 268 269 268 263 258 254 252 246 242 229 215 213 213 215 214 211 195 186 214 234 244 244 238 233 223 228 240 282 329 329 291 254 182 116 47 199 192 224 228 231 211 186 199 217 228 238 239 227 211
302 301 301 300 299 299 298 297 297 297 298 298 297 297 298 298 299 299 300 301 301 300 300 298 296 295 293 292 291 290 289 290 290 289 285 284 282 274 272 267 266 266 261 256 250 245 240 238 227 217 215 213 213 206 205 196 188 208 224 240 243 231 221 215 239 257 288 311 312 351 352 192 180 67 163 164 226 231 240 226 203 227 237 242 242 238 233 220
302 302 302 301 300 299 299 298 297 297 297 297 296 297 297 298 298 299 300 301 300 300 299 297 295 294 292 291 289 288 288 287 288 288 286 287 282 270 270 268 265 262 255 251 245 238 224 218 215 214 215 213 212 202 201 200 199 213 220 233 237 234 236 236 253 269 300 309 299 17 76 136 267 269 212 215 227 229 241 241 231 247 255 260 251 243 238 223
303 303 302 301 301 300 300 299 299 298 297 297 297 297 298 298 299 299 299 299 299 298 298 296 294 293 292 290 289 289 286 284 286 286 285 284 280 274 270 266 262 257 251 247 240 234 218 206 201 203 210 210 207 199 201 207 210 218 225 235 233 237 250 246 250 273 300 300 290 308 168 142 12 272 221 210 226 247 249 246 234 232 248 256 253 241 230 220
302 303 302 302 302 301 301 299 299 299 298 298 297 298 298 299 299 299 299 299 298 297 296 294 293 293 292 290 288 287 283 284 287 286 285 281 280 277 271 266 260 253 247 243 239 232 222 210 194 192 207 202 199 202 204 211 221 226 230 243 249 248 248 245 254 277 300 290 253 164 186 174 11 300 228 215 236 273 269 264 258 251 253 249 244 237 225 217
302 302 302 302 302 301 301 300 300 299 299 298 298 298 298 299 299 299 299 299 298 296 294 293 292 292 291 289 287 285 278 273 281 284 284 280 274 271 273 271 263 254 247 245 241 233 227 218 196 188 216 210 200 210 211 212 226 235 234 241 256 260 257 257 263 273 292 290 265 234 189 188 338 310 262 254 255 271 264 255 262 265 257 240 234 230 219 211
301 301 301 301 302 301 301 301 300 300 299 298 298 297 297 298 298 299 299 299 298 296 293 292 291 290 289 288 285 283 276 261 267 276 278 280 274 269 270 269 263 255 251 247 239 235 230 224 202 183 211 228 217 215 214 219 230 241 243 241 247 256 260 266 274 274 283 292 277 262 219 213 305 309 248 271 271 251 243 246 265 268 247 224 216 213 207 203
302 301 301 301 301 301 302 301 301 301 299 299 298 296 296 297 298 299 299 298 298 295 293 291 290 289 287 286 284 281 275 262 259 266 272 278 277 274 269 262 260 257 248 238 234 232 226 223 203 180 201 222 231 231 221 231 237 239 247 249 252 256 259 265 272 274 280 284 277 276 250 229 257 288 233 256 274 248 254 264 267 260 234 215 205 203 203 203
302 301 301 301 301 301 301 301 301 301 300 299 298 296 296 297 298 298 298 298 296 294 292 291 290 289 286 284 284 280 276 272 263 259 262 267 271 272 268 262 255 251 240 225 223 223 221 217 198 187 203 212 230 245 239 247 244 237 244 248 256 262 264 263 256 261 272 269 263 265 271 244 240 261 229 227 260 262 267 262 248 251 242 210 202 204 207 210
301 301 301 301 301 301 301 301 300 300 300 299 298 297 296 296 298 297 298 297 295 293 290 291 290 288 286 283 283 279 278 282 273 265 265 264 267 265 262 263 254 244 236 223 217 220 224 212 188 190 216 221 229 239 241 248 249 244 248 251 257 261 264 266 253 255 268 267 259 245 261 260 244 255 229 211 246 257 255 246 243 249 230 196 200 210 215 221
301 301 300 300 301 301 302 301 300 299 298 298 297 297 296 295 296 295 297 296 295 294 290 291 290 289 287 282 284 281 273 274 269 267 268 263 262 263 258 257 254 242 229 219 215 216 222 204 173 192 228 233 231 236 240 241 245 249 256 264 263 257 259 265 258 254 256 263 270 266 259 251 243 253 226 203 242 257 247 238 235 230 218 212 216 220 225 231
300 300 300 300 300 300 301 300 300 299 298 298 297 297 296 295 294 294 294 295 296 295 293 292 288 288 286 284 287 278 250 248 257 270 274 258 246 259 262 253 250 243 225 214 209 205 212 192 168 192 220 236 244 247 246 239 245 251 257 267 259 254 260 262 256 249 247 256 264 267 260 245 235 240 223 203 224 248 245 235 227 234 259 253 233 228 230 235
300 300 300 300 300 300 299 299 299 298 298 298 297 296 295 295 292 290 290 292 295 296 298 293 290 289 284 286 288 272 256 247 251 258 262 259 249 253 260 253 241 234 219 208 199 180 192 195 185 204 219 239 250 244 237 238 252 255 253 261 258 258 261 254 248 246 247 254 253 246 246 241 233 231 225 212 208 230 244 239 236 259 274 264 234 228 236 239
301 301 300 300 300 299 299 298 297 297 297 297 297 296 295 295 292 288 286 288 291 294 298 295 293 290 284 286 282 270 268 260 257 256 255 260 266 260 249 247 239 223 209 206 196 169 179 223 223 223 224 232 238 234 235 237 241 250 250 251 255 260 257 247 240 244 246 247 241 232 239 243 240 232 228 219 211 227 245 240 242 264 266 254 234 234 248 245
301 300 301 300 300 300 299 298 297 296 295 295 295 295 294 295 292 287 283 283 288 291 295 296 294 293 289 286 278 274 274 267 265 266 263 263 270 270 249 241 236 219 208 203 193 177 186 216 228 229 228 226 226 231 239 237 232 244 253 247 246 254 256 249 241 241 243 244 236 230 237 243 240 235 232 226 213 220 237 236 239 256 253 242 236 241 251 251
302 301 300 300 300 300 299 298 297 296 296 295 293 293 293 294 294 289 283 281 283 286 288 291 292 295 295 291 283 279 273 265 263 261 260 262 265 265 248 244 239 223 219 206 196 193 196 210 222 229 234 230 225 229 240 247 248 245 246 249 247 250 256 254 250 244 239 241 236 229 234 239 240 236 231 228 213 213 232 232 227 246 248 234 228 239 254 258
303 302 301 300 299 298 297 297 296 296 296 295 294 293 291 292 292 289 285 281 279 281 283 286 288 292 295 290 285 281 275 270 266 256 253 262 260 228 210 243 260 250 232 217 209 209 209 213 220 226 233 234 224 223 241 251 249 241 240 249 249 248 252 252 253 251 242 237 232 230 232 234 240 242 234 228 218 215 227 224 217 234 243 233 227 240 257 260
302 302 301 299 298 296 295 294 294 295 295 296 295 293 292 290 289 287 285 281 277 276 279 281 284 288 290 280 268 36 353 312 280 278 280 279 259 200 186 216 256 269 245 227 224 219 218 220 226 232 234 234 222 212 225 237 236 236 240 245 245 243 244 247 251 250 247 239 228 226 229 230 234 239 236 229 226 227 225 220 220 225 233 237 240 248 253 252
302 301 299 298 297 294 293 293 292 290 290 291 292 293 294 290 286 284 279 275 273 274 275 274 271 266 248 230 196 72 12 322 278 291 301 287 261 195 179 190 233 251 240 229 231 223 222 224 225 231 230 227 221 211 215 228 235 239 242 247 250 246 242 247 255 248 241 243 233 224 224 228 231 236 237 228 228 234 227 221 219 217 223 236 245 247 242 242
301 300 298 297 295 294 294 293 291 290 288 287 286 288 291 289 284 281 276 271 270 270 267 265 267 267 255 242 243 132 329 283 273 282 281 264 256 208 185 190 223 235 230 226 231 227 220 225 226 230 230 224 222 218 218 225 233 242 249 257 263 263 260 257 263 263 247 247 241 224 219 225 230 238 248 238 227 234 234 225 214 211 222 236 242 237 230 239
300 299 298 296 296 295 295 294 293 292 289 286 284 283 286 286 280 279 281 279 273 271 266 261 264 271 267 243 234 191 187 256 273 272 268 255 241 223 199 200 219 231 231 220 224 234 227 228 232 235 236 229 225 225 228 230 233 243 253 262 269 272 277 269 260 265 257 252 244 220 211 220 227 238 258 257 235 239 247 226 210 210 226 237 233 225 224 234
299 298 298 297 297 296 296 295 294 293 291 290 287 282 281 278 278 283 287 284 277 273 273 264 256 265 274 259 234 200 189 221 258 262 264 257 236 227 214 211 219 225 231 224 218 230 235 239 243 243 241 235 228 225 232 238 239 248 254 262 269 271 276 269 255 260 256 256 245 213 200 211 223 236 252 257 243 247 240 208 200 208 222 231 230 225 226 230
299 298 298 298 298 296 298 298 297 297 293 290 286 281 278 273 277 280 281 285 281 271 271 273 266 264 267 261 231 204 197 202 234 255 259 252 235 228 216 218 228 226 227 230 224 225 232 245 259 251 236 234 236 231 233 241 241 246 251 255 263 266 268 262 268 281 262 252 237 201 194 205 214 232 242 245 249 250 226 204 209 223 224 235 243 237 235 239
298 299 298 297 297 296 298 303 304 301 294 291 283 276 276 272 270 269 274 286 286 272 266 272 269 263 262 262 231 211 206 202 215 239 253 247 232 225 213 214 231 228 222 230 232 231 231 241 261 254 229 225 235 239 239 245 244 244 247 251 253 257 261 259 275 313 287 232 200 182 191 208 209 220 231 235 242 245 233 223 228 235 235 238 239 234 237 242
297 296 295 295 294 294 297 303 304 297 291 277 263 260 267 268 266 273 285 296 293 283 269 259 258 264 265 243 219 215 218 220 219 220 239 250 243 230 211 206 225 229 226 229 230 236 238 242 250 246 235 223 230 240 238 242 248 244 241 244 246 251 257 258 273 313 316 223 178 178 188 209 210 213 224 232 237 239 240 233 226 228 230 228 230 234 236 237
296 295 296 294 291 294 295 293 291 288 282 267 266 267 263 272 277 288 304 303 300 301 281 251 247 258 252 224 210 210 227 240 240 223 225 244 248 240 220 206 221 228 228 232 231 238 246 249 247 243 242 234 230 239 234 233 244 245 236 233 244 255 259 262 275 298 303 286 208 203 212 231 221 221 229 235 238 239 240 239 230 219 214 216 225 234 235 234
299 300 300 296 295 299 294 289 284 278 278 280 296 306 290 301 307 295 314 302 301 324 284 231 223 233 241 226 205 200 216 238 253 235 214 229 239 236 228 216 221 230 227 231 234 234 243 248 244 239 238 234 233 240 236 230 238 251 252 240 241 257 265 270 276 280 281 285 244 196 219 257 250 244 241 233 242 251 239 232 231 216 209 213 221 231 236 236
307 308 304 300 302 306 297 292 285 273 276 280 297 313 306 319 273 255 342 329 283 342 253 216 209 229 232 206 202 211 222 225 245 239 206 217 231 229 231 223 220 232 231 238 245 239 240 242 239 238 240 242 242 239 232 223 233 252 260 252 243 254 268 272 273 270 273 275 229 185 194 233 271 265 252 234 245 258 240 222 224 216 209 214 220 225 230 230
312 310 304 299 300 307 301 291 288 277 272 274 278 279 264 248 219 212 56 3 280 326 276 224 217 234 211 182 199 217 228 210 224 250 206 213 229 224 232 230 217 225 229 236 251 251 247 242 238 242 244 251 254 239 228 228 244 253 257 259 255 259 268 270 268 261 258 257 217 178 178 197 268 267 256 246 254 259 246 225 223 221 217 223 225 220 220 221
310 306 301 298 296 301 297 288 293 283 271 274 272 245 234 222 203 204 176 240 292 307 284 257 241 237 213 197 206 218 230 222 216 238 209 212 226 221 227 234 222 229 233 233 243 249 250 249 245 242 240 246 254 246 239 241 248 250 251 260 263 261 263 265 259 247 235 230 212 194 199 202 245 260 257 269 272 253 238 222 220 224 223 226 229 221 218 218
308 305 301 299 295 297 294 288 289 281 273 270 252 228 222 210 189 194 213 260 292 285 236 244 254 241 223 212 215 222 236 233 213 218 210 204 214 219 222 225 225 236 243 243 248 251 249 247 242 239 237 241 245 245 246 242 238 239 241 246 253 257 256 257 251 237 222 212 209 217 230 220 226 250 255 285 267 237 216 199 207 219 218 218 223 216 209 214
305 304 302 300 297 295 289 286 284 272 264 251 236 225 208 196 199 215 224 259 292 307 168 251 263 233 227 227 225 229 239 233 215 220 215 201 205 218 222 219 220 231 244 247 252 255 246 239 236 236 235 229 231 240 245 242 235 232 233 234 239 256 257 252 244 224 203 223 224 233 236 223 225 236 243 256 268 260 226 199 198 211 211 209 209 203 202 220
305 304 302 301 298 293 282 281 282 273 261 239 226 214 190 171 226 229 234 244 250 317 353 323 314 268 236 237 231 229 236 232 222 220 214 204 206 217 227 226 218 225 242 245 250 260 248 232 235 240 236 227 226 237 240 238 234 227 226 228 226 197 27 271 236 201 239 243 241 246 243 222 206 205 225 246 251 276 241 206 206 211 203 194 188 187 203 225
304 302 300 301 298 291 280 275 276 272 259 241 223 201 185 197 236 234 243 249 254 291 324 325 320 306 269 247 238 236 237 234 229 222 213 209 212 216 225 230 221 224 239 240 244 256 252 227 235 240 233 229 233 234 231 239 246 224 216 221 231 227 225 253 220 184 207 229 233 240 240 199 150 130 118 143 178 193 146 131 162 189 182 175 171 179 201 217
304 303 301 303 297 289 284 277 278 270 253 242 218 198 198 217 233 241 252 256 267 292 309 313 307 296 283 267 255 249 246 240 228 223 218 215 218 220 221 225 225 226 235 239 238 247 257 252 240 236 232 236 244 234 223 235 262 230 208 219 236 240 235 237 273 233 167 65 216 224 188 146 139 128 120 106 108 147 145 143 151 156 158 164 167 177 192 194
305 307 304 306 304 299 294 281 278 270 256 242 211 205 216 227 235 248 258 271 287 298 309 313 305 296 295 292 274 249 247 252 239 233 234 223 220 222 222 226 229 228 231 237 236 238 252 257 247 243 241 233 238 239 222 227 250 236 211 219 225 236 244 239 253 261 218 53 61 129 112 138 151 141 129 124 141 150 147 155 161 158 154 151 152 164 173 174
313 316 310 310 306 182 311 290 280 280 269 240 218 218 232 241 245 254 261 279 295 305 315 316 310 300 294 299 297 274 256 248 228 227 240 239 226 221 224 228 229 231 235 239 243 244 250 255 251 253 253 231 226 237 232 227 238 238 222 219 216 224 238 231 221 259 194 121 195 176 140 125 144 164 153 143 150 157 146 143 156 168 158 148 152 167 179 193
322 325 311 316 356 27 347 340 332 317 288 246 236 239 248 252 255 261 263 272 285 296 304 307 307 302 289 287 293 299 289 248 213 214 230 237 236 224 225 231 229 228 233 239 247 247 251 267 259 247 257 247 226 222 225 226 233 237 235 234 224 217 219 213 202 200 194 185 221 175 139 99 66 104 184 150 134 140 140 140 155 167 163 162 170 183 203 225
324 332 310 324 5 5 339 330 325 309 280 256 251 253 263 274 280 282 278 277 282 288 289 292 302 305 300 288 281 298 314 290 218 210 219 223 231 229 227 232 236 224 217 235 255 248 244 259 265 249 247 253 237 217 216 218 219 228 239 242 241 242 229 201 193 192 192 156 181 317 93 60 48 65 153 164 154 155 147 145 158 167 172 182 186 193 211 221
326 336 311 325 349 344 323 316 314 302 285 278 274 274 281 290 297 304 306 298 289 284 280 282 300 307 301 296 287 294 321 333 282 214 227 229 231 237 229 228 236 243 234 234 263 254 237 231 242 256 249 239 249 234 217 218 214 218 227 224 221 231 216 204 205 211 222 156 135 76 347 31 49 73 143 162 172 183 167 159 168 176 187 198 201 210 215 213
348 353 339 342 340 332 321 320 324 318 310 303 295 294 286 280 286 294 298 292 280 279 280 275 288 305 297 289 291 289 311 331 327 260 251 247 240 245 238 225 229 242 258 254 248 251 236 219 222 244 246 225 238 254 215 218 226 223 228 224 220 224 202 184 209 214 222 195 151 153 167 175 111 111 153 168 172 177 188 202 198 189 189 188 189 201 200 194
11 360 348 345 336 325 320 329 348 328 316 312 303 297 289 278 281 287 292 299 282 280 291 279 275 300 308 298 296 290 297 314 318 316 300 286 276 261 251 244 233 233 255 266 252 235 243 233 221 229 234 220 232 274 214 201 249 249 241 241 238 236 213 197 234 228 229 119 145 146 133 164 152 135 161 189 193 176 173 184 177 171 168 158 154 159 162 166
339 329 338 350 344 336 337 348 6 327 306 303 294 287 286 282 281 285 291 306 305 295 303 299 284 301 311 301 298 297 299 302 303 311 307 295 304 278 263 268 245 229 241 258 251 228 210 289 233 223 228 225 238 269 210 189 319 301 262 271 260 249 226 217 232 228 213 161 148 134 103 178 186 174 172 188 197 187 174 160 149 147 147 143 146 153 161 168
48 8 329 344 350 350 348 342 340 329 309 295 283 279 283 281 278 282 281 279 297 312 311 300 288 301 306 289 284 300 306 297 287 293 328 314 319 305 293 302 264 227 231 244 247 232 204 46 359 227 220 231 246 270 215 212 292 305 14 358 316 289 249 216 205 187 180 177 170 152 116 173 179 180 184 188 186 176 166 158 154 153 153 149 150 158 168 173
82 61 10 338 345 345 340 332 330 331 318 306 300 295 294 283 268 269 272 267 276 305 313 301 289 293 300 288 287 300 302 300 296 290 286 289 311 324 310 316 300 221 220 231 238 230 210 86 23 30 133 199 219 263 228 248 282 284 358 10 359 350 2 147 155 144 119 104 156 154 139 152 170 184 199 195 169 145 133 140 153 166 176 176 174 176 176 173
102 87 123 255 334 335 332 332 333 332 322 318 321 310 302 304 290 270 271 272 271 277 298 310 298 290 296 297 303 306 297 309 329 322 322 292 279 283 291 290 274 183 207 236 237 233 226 199 66 63 153 224 163 122 151 241 322 7 15 15 9 355 351 172 173 114 98 90 107 142 150 154 159 167 172 162 147 140 136 140 145 153 169 177 178 181 176 164
76 45 268 253 299 330 335 334 339 353 351 349 358 355 353 354 349 317 260 265 274 271 270 301 294 287 312 315 307 304 294 298 330 342 15 19 243 259 313 261 198 164 166 204 213 219 232 227 206 145 93 255 224 191 198 191 94 55 29 25 20 9 10 201 205 173 167 125 99 145 161 160 153 153 157 153 149 151 154 155 152 151 161 173 176 177 171 159
72 42 354 307 317 345 347 349 356 2 5 15 25 18 27 35 38 33 4 335 339 312 301 302 266 251 314 326 305 299 292 285 317 347 4 5 171 162 282 229 203 197 192 205 200 189 212 229 231 232 218 208 239 227 231 216 124 64 39 42 34 18 24 38 64 142 183 179 133 152 162 157 150 152 149 149 154 161 167 175 181 179 176 178 177 175 169 160
136 131 51 48 54 1 349 351 357 357 1 14 18 16 20 22 68 58 27 5 91 54 25 18 337 256 261 322 305 298 298 292 308 358 27 44 131 192 277 252 225 218 206 232 232 201 197 217 233 235 226 227 235 229 239 230 188 157 354 39 40 25 26 30 37 123 194 170 146 160 166 154 153 157 149 146 153 164 176 188 196 194 190 189 184 179 178 172
163 159 118 95 84 21 357 356 1 356 356 8 13 17 10 348 294 107 39 12 347 94 52 34 15 342 209 75 325 279 285 295 288 289 39 69 146 201 328 341 268 243 224 243 241 219 208 216 226 228 227 233 231 220 234 244 219 230 257 264 32 29 17 21 67 114 150 153 154 171 174 157 153 161 155 147 153 167 179 188 194 197 199 202 197 188 187 186
167 151 115 95 68 37 25 11 357 352 351 1 8 12 13 6 343 303 266 9 290 260 81 43 19 8 197 160 343 284 233 222 242 240 234 235 174 161 148 320 317 328 311 269 252 234 217 207 211 215 217 229 233 225 222 215 204 211 230 235 240 335 339 354 113 134 156 161 163 166 162 153 154 162 156 148 158 175 180 185 196 209 216 218 216 203 193 189
148 142 113 85 63 46 24 329 336 360 13 11 6 0 358 3 2 355 288 230 256 262 265 289 322 332 252 247 325 304 251 232 240 242 241 247 221 171 165 200 291 298 300 309 294 276 270 259 253 355 44 76 17 250 199 171 164 155 11 273 236 245 258 223 190 224 182 170 169 165 157 153 154 156 152 154 169 181 185 192 205 222 232 234 234 221 198 188
Height
3105 3105 3105 3105 3105 3104 3104 3104 3104 3103 3103 3102 3102 3102 3101 3101 3100 3100 3100 3100 3100 3099 3099 3099 3099 3099 3098 3098 3098 3098 3098 3098 3098 3099 3099 3099 3099 3099 3100 3100 3100 3101 3102 3103 3103 3104 3105 3106 3108 3108 3109 3110 3111 3113 3113 3114 3117 3119 3120 3119 3118 3117 3115 3113 3113 3116 3121 3122 3119 3118 3116 3117 3118 3119 3120 3121 3120 3120 3120 3119 3121 3122 3122 3124 3126 3126 3127 3127
3104 3104 3104 3104 3104 3103 3103 3103 3102 3102 3102 3101 3101 3100 3100 3099 3099 3098 3098 3098 3098 3098 3098 3097 3097 3097 3097 3097 3096 3096 3096 3096 3097 3097 3097 3097 3098 3098 3098 3099 3099 3100 3101 3101 3102 3103 3104 3106 3106 3107 3108 3109 3110 3112 3113 3113 3115 3116 3118 3117 3116 3115 3113 3112 3113 3116 3120 3121 3119 3118 3116 3117 3119 3119 3120 3120 3119 3120 3120 3119 3120 3121 3121 3123 3124 3125 3125 3127
3103 3103 3103 3102 3102 3102 3102 3101 3101 3101 3100 3100 3099 3099 3098 3098 3097 3097 3096 3096 3096 3096 3096 3096 3096 3095 3095 3095 3095 3095 3095 3095 3095 3096 3096 3096 3096 3097 3097 3097 3098 3098 3099 3100 3101 3102 3103 3104 3105 3106 3107 3108 3109 3110 3112 3113 3114 3115 3116 3115 3113 3113 3113 3112 3114 3116 3119 3121 3118 3117 3117 3117 3119 3119 3120 3120 3118 3119 3120 3119 3119 3119 3120 3122 3123 3124 3124 3126
3102 3102 3101 3101 3101 3101 3100 3100 3100 3099 3099 3099 3098 3098 3097 3096 3096 3095 3095 3095 3094 3094 3094 3094 3094 3094 3094 3093 3093 3093 3093 3093 3094 3094 3094 3095 3095 3095 3096 3096 3097 3097 3098 3098 3099 3100 3101 3102 3103 3104 3105 3106 3108 3109 3110 3112 3113 3114 3114 3113 3111 3113 3112 3111 3113 3116 3118 3119 3117 3116 3117 3117 3118 3119 3119 3119 3118 3117 3118 3119 3119 3120 3120 3121 3123 3124 3124 3124
3101 3100 3100 3100 3100 3099 3099 3099 3098 3098 3098 3097 3097 3096 3096 3095 3094 3094 3093 3093 3093 3093 3093 3093 3092 3092 3092 3092 3091 3091 3091 3091 3092 3092 3093 3094 3094 3094 3094 3095 3095 3096 3096 3097 3098 3099 3099 3100 3101 3103 3104 3105 3107 3108 3109 3111 3112 3113 3112 3112 3112 3113 3112 3109 3112 3116 3116 3116 3115 3114 3116 3116 3116 3117 3117 3118 3118 3117 3116 3118 3120 3120 3120 3120 3121 3122 3123 3123
3099 3099 3099 3099 3098 3098 3098 3097 3097 3097 3096 3096 3095 3095 3094 3094 3093 3092 3092 3092 3091 3091 3091 3091 3091 3090 3090 3090 3090 3090 3090 3090 3091 3091 3091 3092 3093 3093 3093 3093 3094 3094 3095 3095 3096 3097 3098 3099 3099 3101 3103 3104 3105 3107 3108 3110 3112 3111 3111 3112 3111 3112 3111 3109 3111 3114 3115 3115 3114 3113 3114 3114 3115 3116 3116 3118 3119 3117 3115 3116 3119 3120 3120 3120 3120 3121 3121 3122
3098 3098 3098 3097 3097 3097 3096 3096 3096 3095 3095 3094 3094 3093 3093 3092 3092 3091 3091 3090 3090 3089 3089 3089 3089 3089 3088 3088 3088 3088 3088 3089 3090 3089 3088 3090 3091 3091 3092 3092 3093 3093 3094 3095 3095 3096 3097 3098 3097 3099 3102 3104 3105 3106 3107 3109 3111 3111 3110 3111 3111 3111 3110 3109 3111 3113 3114 3113 3112 3113 3114 3114 3115 3116 3117 3118 3117 3117 3115 3116 3119 3120 3119 3119 3120 3120 3120 3121
3097 3097 3096 3096 3096 3095 3095 3095 3094 3094 3093 3093 3093 3092 3092 3091 3090 3090 3089 3089 3088 3088 3087 3087 3087 3087 3087 3086 3086 3086 3086 3087 3088 3088 3087 3088 3088 3089 3090 3091 3091 3092 3093 3093 3094 3095 3096 3096 3097 3099 3101 3103 3104 3105 3106 3107 3108 3109 3109 3110 3110 3110 3109 3109 3110 3111 3112 3111 3110 3112 3113 3113 3115 3116 3117 3117 3115 3116 3116 3117 3119 3119 3119 3119 3120 3120 3120 3120
3096 3095 3095 3094 3094 3094 3094 3093 3093 3093 3092 3092 3091 3091 3090 3089 3089 3089 3088 3087 3087 3086 3085 3085 3085 3085 3085 3085 3085 3084 3085 3086 3086 3086 3086 3086 3087 3088 3088 3089 3090 3090 3091 3092 3093 3094 3094 3095 3096 3098 3100 3102 3104 3105 3107 3106 3106 3106 3108 3109 3109 3108 3108 3108 3108 3110 3111 3111 3109 3111 3112 3113 3114 3114 3116 3116 3114 3115 3115 3116 3118 3117 3118 3119 3120 3121 3121 3120
3094 3094 3093 3093 3093 3092 3092 3092 3091 3091 3091 3090 3090 3089 3089 3088 3088 3087 3087 3086 3085 3084 3084 3083 3083 3083 3083 3083 3083 3083 3083 3084 3084 3084 3084 3085 3085 3086 3087 3087 3088 3089 3090 3091 3092 3092 3093 3094 3096 3099 3101 3102 3103 3104 3105 3105 3105 3105 3106 3107 3108 3107 3107 3107 3107 3108 3110 3109 3109 3110 3111 3112 3113 3113 3115 3116 3113 3113 3115 3115 3116 3117 3117 3119 3120 3121 3121 3120
3093 3092 3092 3091 3091 3091 3091 3090 3090 3089 3089 3089 3088 3088 3087 3087 3086 3086 3085 3084 3084 3083 3082 3082 3081 3081 3081 3081 3082 3082 3082 3082 3081 3081 3082 3083 3084 3084 3085 3086 3087 3088 3089 3090 3090 3092 3093 3094 3096 3099 3101 3101 3101 3102 3102 3103 3103 3104 3104 3104 3104 3105 3105 3105 3105 3106 3107 3107 3107 3109 3110 3111 3112 3112 3113 3114 3112 3111 3113 3114 3115 3116 3116 3118 3120 3120 3121 3120
3091 3090 3090 3090 3089 3089 3089 3089 3088 3088 3087 3087 3087 3086 3086 3085 3085 3084 3084 3083 3082 3081 3080 3080 3079 3079 3079 3080 3080 3081 3081 3080 3079 3079 3079 3080 3082 3083 3084 3085 3086 3087 3087 3089 3090 3091 3093 3094 3095 3097 3099 3100 3101 3101 3101 3101 3102 3102 3102 3101 3101 3102 3102 3103 3104 3104 3106 3106 3107 3109 3108 3108 3110 3111 3111 3113 3113 3109 3109 3113 3114 3113 3115 3116 3118 3119 3120 3120
3089 3089 3088 3088 3088 3087 3087 3087 3086 3086 3086 3086 3085 3085 3084 3084 3083 3083 3082 3081 3081 3080 3079 3078 3077 3077 3077 3078 3079 3078 3078 3078 3078 3078 3077 3077 3080 3082 3082 3083 3084 3085 3086 3088 3089 3090 3092 3094 3095 3096 3098 3098 3098 3099 3099 3099 3101 3100 3101 3100 3099 3099 3098 3100 3102 3103 3104 3104 3106 3108 3105 3105 3107 3109 3110 3111 3113 3109 3107 3110 3110 3110 3112 3115 3117 3118 3119 3119
3087 3087 3086 3086 3086 3085 3085 3085 3085 3084 3084 3084 3084 3083 3083 3082 3082 3081 3081 3080 3079 3078 3078 3076 3076 3075 3075 3076 3077 3075 3076 3077 3077 3077 3076 3075 3077 3080 3081 3081 3083 3084 3085 3086 3087 3088 3091 3093 3094 3094 3095 3095 3095 3096 3096 3097 3098 3099 3099 3098 3098 3097 3095 3098 3101 3101 3102 3102 3105 3106 3103 3103 3105 3106 3108 3109 3111 3110 3107 3107 3107 3106 3109 3113 3115 3116 3118 3119
3085 3085 3084 3084 3084 3083 3083 3083 3082 3082 3082 3082 3082 3081 3081 3081 3080 3080 3079 3078 3077 3076 3076 3075 3074 3073 3073 3074 3074 3074 3074 3075 3075 3076 3075 3075 3076 3077 3079 3080 3081 3082 3083 3085 3086 3086 3088 3090 3091 3091 3092 3092 3093 3094 3095 3095 3095 3096 3097 3096 3096 3095 3093 3096 3098 3099 3100 3100 3103 3104 3101 3101 3103 3104 3106 3107 3108 3109 3108 3107 3106 3105 3106 3110 3112 3114 3116 3119
3083 3083 3082 3082 3081 3081 3081 3081 3080 3080 3080 3080 3080 3079 3079 3079 3078 3078 3077 3076 3075 3075 3074 3073 3072 3072 3071 3071 3072 3073 3073 3073 3073 3074 3073 3074 3075 3076 3077 3078 3079 3081 3082 3083 3084 3085 3086 3088 3089 3089 3090 3091 3092 3093 3094 3094 3093 3094 3094 3093 3094 3094 3094 3095 3095 3096 3098 3099 3100 3100 3099 3100 3101 3102 3104 3106 3106 3107 3108 3108 3106 3104 3104 3106 3109 3112 3115 3117
3081 3081 3080 3080 3079 3079 3079 3078 3078 3078 3078 3078 3078 3078 3077 3077 3076 3075 3075 3074 3074 3073 3072 3071 3071 3070 3070 3069 3070 3071 3071 3072 3072 3072 3072 3073 3074 3075 3076 3077 3078 3080 3081 3082 3083 3083 3085 3086 3086 3087 3088 3089 3090 3093 3093 3091 3090 3091 3092 3092 3092 3093 3093 3092 3092 3094 3095 3096 3097 3096 3097 3098 3099 3101 3101 3103 3105 3105 3106 3108 3106 3103 3103 3104 3106 3110 3114 3116
3079 3079 3078 3077 3077 3077 3076 3076 3076 3076 3076 3076 3076 3075 3075 3075 3074 3073 3072 3072 3071 3071 3071 3070 3069 3069 3069 3068 3069 3069 3070 3070 3070 3071 3071 3072 3073 3074 3075 3077 3078 3079 3080 3080 3081 3082 3083 3084 3085 3085 3086 3086 3087 3089 3088 3086 3088 3090 3090 3090 3090 3090 3090 3090 3089 3090 3091 3092 3094 3094 3094 3096 3097 3099 3099 3100 3103 3104 3104 3105 3106 3103 3102 3103 3104 3108 3113 3115
3077 3077 3076 3075 3075 3074 3074 3074 3074 3074 3074 3073 3073 3073 3073 3072 3071 3071 3070 3069 3069 3069 3069 3068 3067 3068 3068 3068 3068 3068 3069 3070 3069 3070 3071 3071 3072 3073 3074 3077 3078 3078 3079 3079 3079 3081 3082 3082 3083 3082 3081 3082 3083 3084 3084 3084 3087 3089 3089 3088 3088 3088 3087 3087 3086 3087 3088 3089 3091 3091 3091 3093 3095 3096 3096 3097 3099 3101 3102 3103 3104 3102 3102 3103 3103 3107 3111 3113
3075 3074 3074 3073 3072 3072 3072 3072 3071 3071 3071 3071 3071 3071 3071 3070 3069 3068 3066 3066 3067 3067 3067 3066 3064 3065 3066 3067 3068 3067 3068 3070 3069 3070 3071 3070 3071 3072 3073 3075 3077 3077 3077 3077 3078 3079 3080 3080 3079 3077 3077 3079 3081 3083 3084 3085 3087 3088 3088 3087 3087 3087 3086 3086 3085 3084 3086 3086 3086 3087 3088 3090 3092 3093 3093 3094 3096 3099 3100 3101 3102 3100 3100 3102 3103 3106 3109 3111
3073 3072 3071 3071 3070 3070 3070 3069 3069 3069 3069 3069 3069 3069 3069 3068 3067 3065 3063 3062 3064 3064 3064 3064 3062 3061 3063 3065 3066 3066 3067 3068 3068 3069 3070 3070 3071 3072 3072 3073 3075 3075 3075 3076 3077 3079 3079 3076 3074 3075 3077 3079 3081 3083 3084 3085 3085 3086 3086 3085 3084 3085 3084 3084 3083 3081 3084 3084 3082 3084 3087 3088 3090 3091 3091 3092 3094 3096 3096 3096 3099 3099 3100 3101 3103 3106 3107 3108
3071 3070 3069 3069 3068 3068 3067 3067 3067 3067 3066 3067 3066 3066 3066 3066 3065 3064 3061 3059 3061 3062 3060 3061 3061 3059 3060 3063 3064 3064 3064 3065 3066 3067 3068 3069 3069 3070 3071 3072 3072 3073 3074 3076 3076 3077 3076 3073 3072 3075 3077 3079 3080 3081 3083 3084 3084 3084 3084 3084 3082 3082 3082 3081 3080 3078 3081 3082 3079 3081 3085 3086 3088 3089 3089 3090 3092 3094 3094 3093 3097 3098 3098 3099 3101 3104 3105 3104
3069 3068 3067 3067 3066 3066 3066 3065 3065 3065 3064 3065 3065 3064 3064 3064 3063 3063 3060 3056 3057 3059 3058 3058 3058 3057 3058 3060 3061 3062 3061 3062 3064 3065 3066 3067 3067 3068 3069 3070 3071 3072 3073 3074 3074 3075 3073 3071 3072 3075 3076 3078 3079 3079 3081 3082 3082 3082 3082 3082 3081 3080 3081 3080 3080 3078 3078 3078 3076 3078 3083 3084 3087 3088 3088 3089 3090 3093 3094 3095 3097 3096 3096 3097 3099 3100 3100 3101
3067 3066 3066 3065 3065 3064 3064 3064 3063 3063 3063 3063 3063 3063 3062 3062 3062 3060 3059 3056 3053 3054 3056 3055 3054 3054 3055 3057 3059 3059 3059 3060 3062 3063 3064 3064 3066 3067 3068 3069 3070 3071 3072 3072 3073 3073 3071 3070 3072 3075 3075 3076 3077 3077 3079 3079 3079 3079 3080 3080 3079 3079 3079 3079 3081 3080 3077 3076 3075 3077 3082 3083 3085 3086 3086 3088 3089 3091 3093 3095 3097 3096 3095 3095 3096 3096 3097 3098
3065 3065 3064 3063 3063 3062 3063 3063 3062 3061 3061 3061 3060 3060 3060 3060 3059 3058 3057 3055 3051 3050 3052 3052 3051 3051 3053 3054 3055 3056 3058 3058 3059 3062 3062 3061 3064 3066 3067 3068 3069 3069 3070 3071 3072 3072 3070 3070 3072 3074 3074 3074 3075 3076 3076 3077 3077 3077 3077 3078 3078 3077 3076 3077 3081 3081 3079 3077 3075 3077 3080 3080 3082 3084 3085 3087 3087 3089 3091 3093 3095 3097 3095 3092 3092 3094 3095 3097
3063 3063 3062 3062 3061 3061 3061 3061 3061 3060 3059 3059 3059 3059 3059 3058 3058 3057 3057 3055 3050 3047 3047 3048 3048 3050 3050 3050 3052 3055 3057 3056 3056 3060 3061 3060 3062 3065 3066 3066 3067 3067 3069 3070 3071 3070 3069 3069 3071 3072 3072 3073 3074 3074 3074 3075 3076 3075 3075 3077 3077 3076 3075 3076 3080 3082 3081 3079 3077 3078 3078 3079 3080 3082 3084 3085 3086 3088 3090 3092 3094 3094 3092 3091 3091 3091 3092 3095
3062 3061 3061 3060 3059 3060 3059 3059 3059 3059 3058 3058 3058 3058 3058 3057 3058 3057 3057 3056 3050 3045 3045 3045 3047 3048 3048 3048 3051 3054 3055 3054 3055 3057 3059 3059 3060 3063 3064 3065 3066 3066 3067 3069 3069 3068 3068 3068 3069 3070 3071 3072 3072 3071 3071 3073 3073 3072 3073 3076 3076 3075 3075 3076 3079 3080 3080 3080 3079 3078 3078 3079 3079 3080 3082 3084 3084 3086 3088 3090 3092 3089 3088 3091 3092 3090 3092 3095
3060 3060 3059 3058 3058 3058 3058 3057 3057 3057 3057 3057 3057 3058 3058 3057 3058 3057 3058 3057 3049 3044 3044 3045 3046 3048 3048 3049 3050 3052 3053 3054 3054 3054 3056 3057 3059 3061 3062 3063 3064 3064 3066 3067 3066 3065 3066 3067 3067 3068 3069 3070 3069 3069 3070 3071 3071 3070 3072 3074 3074 3074 3074 3075 3078 3078 3078 3079 3078 3077 3078 3079 3079 3079 3081 3082 3082 3083 3086 3089 3088 3084 3086 3090 3090 3089 3092 3095
3058 3058 3058 3057 3056 3057 3057 3056 3056 3056 3055 3055 3056 3057 3057 3057 3057 3057 3059 3057 3047 3043 3045 3045 3046 3048 3048 3049 3051 3051 3052 3053 3053 3054 3055 3056 3058 3060 3060 3061 3063 3063 3064 3065 3064 3064 3065 3065 3066 3067 3067 3067 3068 3068 3068 3069 3069 3070 3072 3073 3073 3073 3073 3073 3076 3076 3077 3077 3076 3076 3077 3078 3079 3079 3080 3082 3082 3081 3084 3087 3084 3082 3085 3087 3086 3088 3091 3094
3057 3057 3057 3056 3055 3055 3055 3054 3054 3054 3053 3054 3055 3055 3055 3056 3056 3057 3060 3055 3046 3043 3045 3045 3046 3047 3048 3049 3050 3050 3051 3052 3052 3054 3054 3054 3056 3059 3059 3061 3062 3062 3062 3062 3062 3062 3063 3064 3065 3065 3065 3065 3066 3066 3066 3068 3069 3071 3072 3072 3073 3073 3072 3072 3073 3075 3075 3076 3076 3076 3077 3079 3079 3079 3079 3081 3081 3079 3080 3081 3078 3079 3083 3084 3084 3087 3091 3095
3055 3055 3055 3055 3054 3053 3053 3052 3053 3053 3052 3053 3053 3054 3054 3055 3056 3058 3056 3051 3045 3043 3043 3044 3046 3046 3046 3048 3048 3048 3049 3050 3051 3053 3053 3052 3055 3057 3058 3060 3060 3061 3061 3060 3060 3061 3061 3062 3063 3063 3063 3064 3065 3065 3066 3067 3069 3070 3071 3071 3072 3072 3072 3071 3071 3072 3073 3075 3076 3075 3077 3079 3079 3079 3079 3079 3079 3078 3077 3076 3076 3079 3081 3082 3085 3087 3092 3096
3054 3053 3053 3053 3052 3052 3051 3051 3051 3051 3051 3051 3052 3052 3053 3054 3056 3054 3051 3048 3046 3042 3042 3044 3045 3045 3046 3047 3047 3047 3048 3049 3049 3051 3052 3051 3052 3055 3056 3058 3058 3059 3058 3058 3059 3059 3059 3059 3060 3062 3062 3063 3064 3064 3065 3066 3068 3069 3069 3070 3072 3071 3071 3071 3069 3070 3071 3073 3075 3075 3076 3077 3078 3079 3078 3077 3077 3076 3075 3074 3076 3080 3080 3080 3084 3087 3091 3095
3052 3051 3051 3051 3051 3050 3050 3049 3049 3050 3050 3050 3050 3051 3052 3054 3052 3048 3047 3048 3044 3040 3041 3043 3044 3046 3046 3046 3046 3047 3048 3048 3048 3050 3051 3051 3052 3053 3054 3056 3058 3058 3058 3058 3058 3058 3057 3058 3059 3060 3060 3060 3063 3063 3062 3064 3065 3066 3066 3068 3070 3070 3072 3072 3069 3069 3070 3071 3073 3074 3075 3075 3076 3079 3078 3076 3077 3076 3075 3075 3076 3080 3080 3081 3084 3088 3091 3094
3050 3050 3049 3049 3049 3048 3048 3048 3048 3048 3048 3049 3049 3050 3051 3051 3048 3045 3046 3047 3043 3040 3041 3042 3042 3044 3045 3044 3045 3046 3047 3047 3048 3049 3050 3050 3051 3053 3053 3054 3056 3057 3058 3058 3057 3056 3056 3056 3056 3058 3058 3058 3060 3061 3060 3061 3062 3063 3064 3067 3067 3067 3070 3071 3069 3069 3070 3070 3071 3073 3074 3074 3075 3078 3078 3077 3077 3076 3076 3077 3078 3079 3081 3083 3086 3088 3091 3094
3049 3048 3047 3047 3047 3047 3046 3046 3046 3047 3047 3047 3048 3049 3048 3046 3045 3045 3046 3046 3045 3044 3043 3043 3042 3042 3042 3042 3042 3043 3044 3045 3047 3047 3048 3049 3050 3051 3052 3052 3054 3056 3057 3057 3056 3055 3055 3054 3054 3056 3056 3056 3058 3059 3059 3060 3061 3062 3064 3065 3065 3066 3068 3069 3068 3069 3069 3069 3071 3072 3073 3073 3074 3078 3079 3077 3077 3077 3077 3077 3079 3080 3082 3084 3086 3089 3092 3094
3047 3047 3046 3045 3045 3045 3045 3046 3046 3046 3045 3046 3046 3046 3044 3044 3045 3045 3045 3044 3045 3046 3044 3043 3042 3041 3040 3041 3041 3041 3041 3042 3045 3046 3045 3046 3047 3049 3051 3052 3053 3054 3054 3055 3055 3055 3054 3052 3053 3055 3054 3054 3056 3057 3058 3059 3060 3061 3062 3062 3063 3066 3067 3067 3067 3068 3068 3070 3071 3072 3073 3074 3075 3077 3077 3076 3077 3078 3076 3076 3079 3081 3082 3084 3087 3089 3092 3094
3046 3046 3044 3044 3045 3045 3045 3045 3045 3044 3044 3045 3044 3043 3043 3043 3044 3045 3044 3044 3044 3045 3045 3043 3042 3041 3040 3040 3040 3041 3040 3040 3042 3044 3044 3045 3045 3047 3048 3050 3051 3053 3054 3054 3054 3054 3053 3051 3051 3052 3053 3053 3055 3056 3057 3058 3060 3061 3061 3061 3063 3065 3066 3066 3067 3067 3068 3070 3072 3073 3073 3073 3075 3076 3076 3077 3078 3076 3075 3076 3079 3081 3082 3084 3086 3089 3091 3093
3045 3044 3043 3043 3044 3043 3043 3043 3043 3043 3043 3043 3043 3042 3043 3043 3043 3044 3044 3044 3043 3044 3045 3043 3042 3041 3040 3040 3039 3039 3040 3039 3038 3040 3042 3043 3043 3044 3046 3047 3049 3051 3052 3053 3052 3052 3052 3050 3050 3051 3052 3052 3054 3056 3056 3057 3059 3059 3060 3061 3062 3063 3063 3064 3065 3067 3069 3070 3071 3073 3073 3073 3075 3076 3076 3078 3078 3075 3074 3076 3078 3080 3081 3083 3085 3088 3090 3092
3043 3044 3043 3042 3043 3043 3043 3043 3043 3043 3042 3042 3042 3042 3042 3042 3043 3043 3044 3044 3044 3044 3044 3043 3042 3040 3039 3039 3038 3038 3039 3038 3037 3038 3040 3041 3042 3043 3044 3046 3047 3047 3048 3049 3049 3049 3050 3050 3048 3049 3051 3051 3052 3053 3053 3055 3057 3058 3059 3061 3061 3061 3061 3062 3063 3065 3067 3069 3072 3075 3074 3074 3075 3075 3076 3077 3078 3077 3075 3075 3077 3080 3081 3083 3085 3087 3089 3091
3043 3043 3042 3042 3043 3043 3043 3043 3042 3041 3041 3041 3041 3041 3041 3041 3042 3043 3044 3044 3044 3044 3043 3042 3041 3040 3038 3038 3038 3037 3037 3037 3037 3038 3038 3040 3041 3042 3043 3044 3045 3045 3045 3046 3046 3046 3047 3047 3047 3048 3050 3050 3050 3052 3053 3054 3056 3057 3057 3059 3060 3060 3060 3062 3062 3063 3065 3067 3072 3076 3076 3075 3075 3075 3076 3076 3076 3077 3076 3076 3078 3080 3081 3083 3085 3087 3089 3091
3042 3042 3042 3042 3043 3042 3042 3041 3041 3041 3040 3040 3041 3041 3041 3041 3041 3042 3042 3042 3042 3042 3042 3041 3040 3039 3038 3037 3037 3037 3037 3037 3037 3037 3038 3039 3040 3041 3041 3042 3043 3044 3043 3044 3045 3045 3044 3044 3044 3046 3048 3049 3050 3052 3052 3052 3053 3054 3055 3057 3058 3058 3059 3060 3062 3062 3063 3065 3068 3071 3075 3077 3076 3074 3075 3075 3076 3077 3077 3077 3078 3079 3080 3082 3084 3085 3087 3089
3041 3041 3042 3042 3042 3042 3041 3041 3040 3041 3041 3041 3041 3041 3041 3041 3041 3040 3039 3039 3040 3040 3039 3039 3038 3038 3037 3036 3036 3037 3038 3038 3037 3036 3036 3037 3038 3039 3040 3040 3041 3043 3043 3043 3044 3044 3044 3043 3042 3043 3045 3047 3050 3050 3048 3047 3049 3051 3053 3055 3056 3057 3057 3059 3061 3061 3061 3064 3065 3067 3072 3076 3076 3074 3073 3074 3075 3076 3078 3078 3078 3079 3080 3081 3083 3085 3086 3088
3041 3041 3041 3042 3042 3041 3040 3040 3040 3041 3041 3040 3040 3040 3040 3040 3040 3039 3038 3037 3037 3037 3036 3036 3037 3037 3036 3036 3036 3037 3038 3037 3036 3035 3035 3036 3036 3038 3039 3039 3039 3041 3042 3043 3043 3043 3044 3043 3042 3042 3043 3045 3047 3047 3046 3047 3049 3050 3051 3053 3054 3055 3055 3057 3060 3060 3061 3066 3067 3067 3070 3074 3074 3073 3072 3073 3074 3076 3077 3078 3078 3079 3080 3082 3083 3084 3086 3088
3041 3040 3041 3041 3041 3041 3040 3040 3040 3040 3040 3039 3038 3038 3038 3038 3038 3037 3036 3035 3035 3035 3035 3035 3036 3036 3035 3035 3035 3036 3037 3037 3036 3035 3035 3036 3036 3037 3038 3038 3037 3038 3040 3042 3042 3042 3043 3043 3042 3042 3043 3044 3045 3047 3048 3049 3051 3051 3052 3051 3051 3051 3051 3054 3057 3058 3060 3064 3065 3066 3069 3072 3072 3072 3072 3072 3074 3074 3076 3079 3080 3080 3082 3082 3082 3083 3085 3087
3041 3041 3041 3042 3042 3041 3041 3040 3040 3039 3038 3037 3037 3037 3036 3036 3036 3035 3035 3034 3034 3035 3035 3035 3035 3035 3035 3034 3034 3035 3035 3036 3036 3035 3035 3036 3037 3037 3037 3037 3036 3036 3039 3040 3040 3040 3042 3043 3042 3043 3044 3045 3046 3048 3050 3051 3052 3052 3052 3051 3049 3048 3049 3051 3053 3055 3058 3060 3061 3063 3065 3068 3071 3071 3071 3073 3073 3073 3075 3079 3081 3082 3083 3083 3083 3083 3084 3086
3041 3041 3042 3043 3042 3041 3041 3040 3039 3038 3037 3036 3036 3036 3035 3034 3035 3035 3034 3034 3034 3034 3034 3034 3034 3034 3034 3034 3034 3034 3034 3035 3035 3033 3033 3035 3036 3037 3037 3037 3037 3037 3037 3038 3037 3039 3041 3042 3042 3043 3044 3045 3047 3048 3050 3051 3052 3052 3051 3050 3049 3048 3049 3050 3051 3053 3056 3058 3060 3061 3062 3065 3068 3070 3071 3073 3074 3074 3075 3078 3080 3081 3081 3083 3083 3083 3083 3085
3040 3041 3042 3042 3041 3041 3040 3040 3039 3037 3036 3036 3035 3035 3035 3034 3034 3034 3033 3033 3034 3034 3033 3034 3034 3034 3034 3034 3034 3034 3033 3034 3033 3032 3033 3035 3036 3037 3037 3037 3038 3038 3038 3038 3037 3039 3042 3043 3043 3044 3045 3046 3047 3048 3049 3050 3051 3051 3051 3051 3050 3049 3049 3050 3051 3053 3055 3057 3060 3062 3062 3064 3067 3069 3070 3072 3074 3074 3076 3077 3078 3079 3080 3082 3083 3083 3083 3084
3039 3040 3041 3041 3040 3040 3040 3039 3038 3037 3036 3036 3036 3035 3035 3034 3034 3034 3033 3033 3035 3035 3034 3033 3033 3033 3033 3033 3033 3033 3032 3032 3033 3033 3034 3035 3036 3037 3037 3036 3037 3038 3039 3039 3039 3040 3042 3043 3044 3045 3046 3047 3048 3047 3048 3050 3051 3051 3052 3052 3051 3050 3051 3052 3053 3054 3055 3056 3059 3063 3064 3065 3067 3069 3070 3072 3074 3075 3076 3077 3078 3078 3079 3081 3082 3083 3084 3084
3039 3040 3040 3040 3040 3040 3040 3039 3038 3037 3037 3036 3036 3036 3035 3035 3034 3034 3034 3034 3034 3034 3034 3034 3033 3033 3033 3033 3033 3033 3032 3032 3033 3034 3035 3036 3036 3037 3037 3036 3037 3038 3038 3038 3039 3040 3041 3042 3043 3045 3046 3047 3048 3048 3048 3049 3050 3052 3053 3052 3052 3052 3053 3054 3055 3055 3056 3057 3058 3061 3063 3066 3068 3069 3070 3072 3073 3074 3076 3077 3077 3078 3078 3080 3082 3083 3084 3085
3039 3039 3040 3040 3040 3040 3040 3039 3038 3037 3037 3037 3036 3036 3035 3035 3034 3034 3035 3035 3034 3034 3034 3033 3033 3033 3033 3033 3032 3033 3033 3033 3033 3034 3035 3036 3037 3037 3038 3037 3037 3038 3038 3038 3039 3039 3040 3041 3042 3044 3045 3045 3046 3047 3047 3049 3050 3052 3053 3054 3054 3054 3055 3056 3056 3056 3056 3056 3057 3059 3062 3064 3068 3070 3070 3070 3071 3072 3074 3075 3075 3076 3077 3078 3080 3082 3083 3084
3039 3040 3040 3041 3040 3040 3040 3039 3038 3038 3037 3036 3036 3036 3035 3035 3034 3034 3034 3034 3033 3033 3033 3032 3032 3033 3032 3032 3032 3033 3034 3034 3034 3034 3035 3036 3036 3036 3037 3038 3038 3039 3039 3039 3039 3039 3039 3041 3041 3042 3043 3044 3045 3045 3047 3048 3050 3051 3053 3054 3054 3055 3056 3057 3058 3058 3057 3056 3056 3058 3060 3063 3066 3069 3070 3070 3070 3070 3071 3072 3072 3073 3075 3076 3078 3080 3082 3083
3039 3040 3040 3040 3040 3040 3040 3039 3038 3038 3037 3037 3036 3036 3036 3035 3034 3033 3034 3033 3032 3032 3032 3032 3032 3032 3032 3032 3032 3033 3033 3033 3033 3033 3034 3035 3036 3036 3036 3037 3038 3039 3038 3038 3038 3038 3038 3040 3041 3041 3041 3043 3044 3045 3046 3047 3049 3052 3053 3052 3053 3054 3055 3056 3057 3058 3059 3058 3056 3057 3059 3062 3065 3066 3067 3068 3068 3069 3069 3070 3070 3071 3073 3075 3077 3080 3082 3084